Flag for Ireland Weather past 2 weeks in Waterford, Ireland

Now
52 °F

Broken clouds.


Feels Like: 48 °F
Forecast: 44 / 53 °F
Wind: 12 mph from West

Location: Cork Airport

Current Time: Apr 2, 2015 at 11:06:11 AM

Latest Report: Apr 2, 2015 at 10:30 AM


Visibility: N/A

Pressure: 30.15 "Hg

Humidity: 94%

Dew point: 50 °F

Location of WaterfordLocation

Historic Weather in Waterford — Graph

°F

Waterford temperature yesterday

Maximum temperature yesterday: 54 °F (at 6:30 PM)
Minimum temperature yesterday: 36 °F (at 6:30 AM)
Average temperature yesterday: 45 °F

Past Weeks' High & Low Weather Summary

 TemperatureHumidityPressure
High57 °F (Mar 20, 3:00 PM)100% (Mar 18, 9:00 AM)30.60 "Hg (Mar 18, 9:00 AM)
Low34 °F (Mar 22, 6:00 AM)50% (Mar 23, 4:30 PM)29.42 "Hg (Mar 29, 9:30 AM)
Average45 °F85%30.07 "Hg
* Reported Mar 18 9:00 AM — Apr 2 10:00 AM, Waterford, Weather by CustomWeather, © 2015

Note: Actual official high and low records may vary slightly from our data, if they occured in-between our weather recording intervals... More about our weather records

Advertising

Waterford weather history for previous 24 hours

 ConditionsComfort  
Time TempWeatherWind HumidityBarometerVisibility
10:00 AM
Thu, Apr 2
52 °FPartly sunny.14 mph88%30.15 "HgN/A
9:30 AM50 °FPartly sunny.13 mph94%30.15 "HgN/A
9:00 AM50 °FBroken clouds.6 mph94%30.18 "HgN/A
8:30 AM50 °FBroken clouds.9 mph94%30.18 "HgN/A
8:00 AM50 °FPassing clouds.7 mph94%30.15 "HgN/A
7:30 AM48 °FPartly cloudy.7 mph94%30.15 "HgN/A
7:00 AM48 °FPartly cloudy.9 mph94%30.15 "HgN/A
6:30 AM48 °FPartly cloudy.8 mph94%30.15 "HgN/A
6:00 AM48 °FPassing clouds.9 mph94%30.15 "HgN/A
5:30 AM50 °FPartly cloudy.8 mph94%30.15 "HgN/A
5:00 AM48 °FPartly cloudy.12 mph100%30.15 "HgN/A
4:30 AM48 °FPassing clouds.9 mph100%30.15 "HgN/A
4:00 AM48 °FPartly cloudy.9 mph94%30.15 "HgN/A
3:30 AM50 °FPassing clouds.9 mph88%30.15 "HgN/A
3:00 AM48 °FPassing clouds.12 mph94%30.15 "HgN/A
2:30 AM48 °FPassing clouds.12 mph94%30.15 "HgN/A
2:00 AM50 °FPassing clouds.10 mph88%30.18 "HgN/A
1:30 AM50 °FPassing clouds.9 mph88%30.18 "HgN/A
1:00 AM50 °FPartly cloudy.10 mph88%30.18 "HgN/A
12:30 AM50 °FPassing clouds.17 mph88%30.18 "HgN/A
12:00 AM50 °FPassing clouds.13 mph94%30.18 "HgN/A
11:30 PM
Wed, Apr 1
50 °FPassing clouds.8 mph88%30.18 "HgN/A
11:00 PM50 °FPartly cloudy.8 mph88%30.18 "HgN/A
10:30 PM50 °FPassing clouds.10 mph94%30.18 "HgN/A
10:00 PM50 °FPassing clouds.10 mph94%30.18 "HgN/A
9:30 PM50 °FPartly cloudy.12 mph94%30.18 "HgN/A
9:00 PM50 °FBroken clouds.12 mph94%30.18 "HgN/A
8:30 PM50 °FLight rain. Broken clouds.10 mph94%30.18 "HgN/A
8:00 PM52 °FPartly sunny.13 mph88%30.18 "HgN/A
7:30 PM52 °FSprinkles. Broken clouds.15 mph94%30.18 "HgN/A
7:00 PM52 °FPartly sunny.16 mph94%30.18 "HgN/A
6:30 PM54 °FPartly sunny.18 mph88%30.18 "HgN/A
6:00 PM52 °FPartly sunny.17 mph94%30.18 "HgN/A
5:30 PM52 °FPartly sunny.14 mph94%30.21 "HgN/A
5:00 PM50 °FPartly sunny.17 mph100%30.21 "HgN/A
4:30 PM50 °FDrizzle. Partly sunny.17 mph94%30.24 "HgN/A
4:00 PM50 °FPartly sunny.21 mph88%30.24 "HgN/A
3:30 PM50 °FPartly sunny.20 mph88%30.27 "HgN/A
3:00 PM48 °FPartly sunny.21 mph87%30.27 "HgN/A
2:30 PM48 °FPartly sunny.16 mph87%30.30 "HgN/A
2:00 PM48 °FPartly sunny.16 mph82%30.30 "HgN/A
1:30 PM48 °FPartly sunny.17 mph82%30.30 "HgN/A
1:00 PM46 °FPartly sunny.14 mph93%30.33 "HgN/A
12:30 PM46 °FLight rain. Partly sunny.12 mph87%30.33 "HgN/A
12:00 PM46 °FLight rain. Broken clouds.12 mph87%30.33 "HgN/A
11:30 AM46 °FLight rain. Partly sunny.13 mph82%30.36 "HgN/A
11:00 AM46 °FBroken clouds.13 mph76%30.36 "HgN/A
Weather by CustomWeather, © 2015

See weather overviewHow to use our weather pages